N1XBM-13 Weather Reports


time (UTC)temp
C
wind
direction
speed
KPH
gust
KPH
rain 1hr
cm
rain 24hr
cm
rain mn
cm
humidity
%
barometer
mb
20260504232003 18 181 0.0 0.0 0.00 0.00 0.00 41 990.0
20260504231004 18 181 0.0 0.0 0.00 0.00 0.00 40 989.8
20260504230004 18 181 1.6 8.0 0.00 0.00 0.00 39 989.8
20260504225004 19 216 1.6 8.0 0.00 0.00 0.00 38 989.7
20260504224005 19 232 3.2 9.7 0.00 0.00 0.00 37 989.7
20260504223004 19 214 3.2 12.9 0.00 0.00 0.00 36 989.6
20260504221004 20 279 1.6 12.9 0.00 0.00 0.00 36 989.6
20260504220004 20 266 1.6 12.9 0.00 0.00 0.00 37 989.6
20260504214004 20 217 1.6 14.5 0.00 0.00 0.00 36 989.7
20260504213005 20 39 8.0 14.5 0.00 0.00 0.00 36 989.7
20260504212004 20 207 1.6 11.3 0.00 0.00 0.00 36 989.7
20260504211004 20 211 3.2 14.5 0.00 0.00 0.00 37 989.7
20260504210004 20 248 4.8 19.3 0.00 0.00 0.00 36 989.6
20260504205003 20 234 4.8 20.9 0.00 0.00 0.00 36 989.6
20260504204005 20 247 3.2 11.3 0.00 0.00 0.00 35 989.5
20260504203004 20 321 4.8 12.9 0.00 0.00 0.00 36 989.7
20260504202004 20 236 6.4 14.5 0.00 0.00 0.00 37 989.7
20260504201003 19 214 9.7 19.3 0.00 0.00 0.00 37 989.9
20260504200004 19 342 3.2 12.9 0.00 0.00 0.00 38 990.1
20260504195003 19 350 3.2 24.1 0.00 0.00 0.00 38 990.0
20260504194004 19 13 4.8 12.9 0.00 0.00 0.00 40 990.1
20260504193004 19 345 8.0 16.1 0.00 0.00 0.00 40 990.1
20260504192003 19 31 4.8 12.9 0.00 0.00 0.00 39 990.0
20260504190004 18 98 4.8 19.3 0.00 0.00 0.00 40 990.0
20260504185004 18 356 4.8 19.3 0.00 0.00 0.00 41 990.1
20260504184005 17 14 6.4 16.1 0.00 0.00 0.00 42 990.2
20260504183003 17 219 1.6 9.7 0.00 0.00 0.00 47 990.4
20260504182004 17 27 1.6 8.0 0.00 0.00 0.00 46 990.4
20260504181004 17 242 3.2 12.9 0.00 0.00 0.00 46 990.4
20260504180004 17 34 1.6 16.1 0.00 0.00 0.00 43 990.4
20260504175004 17 29 1.6 19.3 0.00 0.00 0.00 42 990.4
20260504173004 16 213 8.0 22.5 0.00 0.00 0.00 41 990.5
20260504172004 17 287 4.8 14.5 0.00 0.00 0.00 41 990.4
20260504171003 17 311 3.2 22.5 0.00 0.00 0.00 40 990.2
20260504151003 15 199 8.0 16.1 0.00 0.03 0.00 50 990.9
20260504141004 13 245 4.8 12.9 0.00 0.03 0.00 58 991.7
20260504082003 2 198 0.0 3.2 0.00 0.03 0.00 86 992.5
20260504050004 2 236 0.0 0.0 0.00 0.03 0.00 84 992.2
20260504045004 2 236 0.0 0.0 0.00 0.03 0.00 84 992.0
20260504044004 2 236 0.0 0.0 0.00 0.03 0.00 83 992.1
20260504043004 2 236 0.0 0.0 0.00 0.03 0.00 84 992.2
20260504042004 2 236 0.0 0.0 0.00 0.03 0.00 81 992.2
20260504041004 3 236 0.0 0.0 0.00 0.03 0.00 79 992.1
20260504035005 3 236 0.0 0.0 0.00 0.03 0.03 80 992.0
20260504034004 3 236 0.0 0.0 0.00 0.03 0.03 78 992.0
20260504031004 4 208 0.0 0.0 0.00 0.03 0.03 74 991.8
20260504030004 4 208 0.0 0.0 0.00 0.03 0.03 75 991.8
20260504025005 4 208 0.0 1.6 0.00 0.03 0.03 74 991.8
20260504024005 4 296 0.0 0.0 0.00 0.03 0.03 74 991.9
20260504023004 4 296 0.0 0.0 0.00 0.03 0.03 73 992.0
20260504022005 5 296 0.0 0.0 0.00 0.03 0.03 74 992.0
20260504021005 5 296 0.0 0.0 0.00 0.03 0.03 72 992.0
20260504020004 5 296 0.0 0.0 0.00 0.03 0.03 71 991.9
20260504015006 5 296 0.0 0.0 0.00 0.05 0.03 70 991.9
20260504014004 5 296 0.0 0.0 0.00 0.05 0.03 67 991.8
20260504012004 6 296 0.0 3.2 0.00 0.08 0.03 66 991.7
20260504011004 6 339 0.0 0.0 0.00 0.08 0.03 62 991.6
20260504010004 6 339 0.0 0.0 0.00 0.10 0.03 61 991.5
20260504004004 7 339 0.0 0.0 0.00 0.13 0.03 58 991.1
20260504003005 7 339 1.6 8.0 0.00 0.13 0.03 56 991.0
20260504002005 7 27 1.6 9.7 0.00 0.13 0.03 56 990.8
20260504001004 8 330 0.0 8.0 0.00 0.13 0.03 56 990.6
20260504000006 8 21 3.2 14.5 0.00 0.13 0.03 52 990.5
20260503235004 8 8 1.6 14.5 0.00 0.15 0.03 52 990.3
20260503233004 8 21 4.8 24.1 0.00 0.18 0.03 49 990.0